Temp
18 18 18 18 18 18 18 17 17 17 17 17 16 17 16 16 16 16 16 16 16 16 16 16 16 15 15 15 15 15 14 14 14 14 13 14 13 13 13 13 13 14 14 13 13 13 14 14 14 14 14 13 14 14 15 15 15 16 16 16 16 16 17 17 17 18 19 19 19 19 19 19 19 19 19 19 19 18 18 18 18 18 18 18 18
19 19 19 18 18 18 18 18 17 17 17 17 16 16 16 16 16 16 16 16 16 16 16 16 16 15 15 15 15 15 15 15 14 14 14 14 14 13 13 13 14 14 14 13 13 13 14 14 14 14 13 13 13 14 15 15 15 15 16 16 16 16 16 16 17 18 18 19 19 19 19 19 19 19 19 19 19 19 19 18 18 18 18 18 19
19 19 19 18 18 18 18 18 17 17 17 17 17 16 16 16 16 16 16 16 16 16 16 16 16 16 15 15 15 15 15 15 14 14 14 14 14 13 13 13 13 13 14 14 13 13 14 14 14 14 13 13 13 13 14 14 15 15 15 16 16 16 16 16 16 17 18 18 18 19 19 18 18 19 19 19 19 19 19 19 18 18 18 18 18
19 19 19 19 18 18 18 18 17 17 17 17 17 16 16 16 16 16 16 16 16 16 16 16 16 16 16 16 16 15 15 15 15 14 14 14 14 14 13 13 13 13 14 14 13 13 14 14 14 14 13 13 13 14 14 15 15 15 15 16 16 16 16 16 16 16 17 17 18 18 18 18 18 18 19 19 18 18 18 18 19 19 18 18 18
19 19 19 18 18 18 17 17 17 17 17 17 17 17 16 16 16 16 16 16 16 16 16 16 16 16 16 16 16 16 15 15 15 14 14 14 14 13 13 13 13 13 13 13 13 14 14 14 14 13 13 13 13 14 15 15 15 15 15 15 15 15 15 15 15 15 15 16 17 18 18 18 18 18 18 18 18 18 18 18 18 18 18 18 18
19 19 19 18 18 18 17 17 17 17 17 17 17 17 17 17 17 17 16 16 16 16 16 16 16 16 16 16 16 16 15 15 14 14 14 14 14 13 13 13 13 13 13 13 13 13 14 14 14 13 13 14 14 14 14 14 14 14 14 15 15 15 15 15 15 15 15 15 16 17 17 18 18 18 18 18 18 18 18 18 19 18 18 18 18
19 19 19 18 18 18 17 17 17 17 17 17 17 17 17 17 17 17 16 16 16 16 16 16 16 16 16 16 16 15 15 14 14 14 14 14 14 14 13 13 13 13 13 13 13 13 13 14 14 14 14 14 13 13 13 13 13 14 14 14 14 15 15 15 15 15 15 15 15 16 17 18 18 18 19 18 18 18 18 18 19 19 19 18 18
19 19 19 19 18 18 18 17 17 17 17 17 17 17 17 17 17 17 16 16 16 16 16 16 16 16 15 15 15 15 15 14 14 14 13 14 14 13 13 13 13 13 13 13 13 13 13 14 14 14 13 13 13 13 13 13 13 14 14 14 14 14 14 14 14 15 15 16 16 16 16 17 17 18 18 18 18 19 18 18 19 19 19 19 18
20 20 19 19 19 18 18 17 17 17 17 17 17 17 17 17 17 17 16 16 16 16 16 16 16 16 16 15 15 15 14 14 13 13 13 13 13 13 13 13 13 13 13 13 13 13 13 14 14 14 13 12 12 12 12 12 12 13 13 13 13 14 14 14 14 15 15 16 16 16 16 16 17 17 17 17 18 19 18 18 19 19 19 19 18
20 20 20 19 19 19 18 18 18 18 17 18 17 17 17 17 17 16 16 16 16 16 16 16 16 16 16 16 16 15 14 14 13 12 12 12 12 13 13 13 13 13 13 13 13 13 13 13 14 14 13 12 12 12 12 12 12 12 13 13 13 13 13 14 14 15 15 15 16 16 16 16 17 17 16 16 16 17 17 18 18 18 18 18 18
20 19 20 19 19 19 19 18 18 18 18 18 18 18 17 17 17 17 17 16 16 16 16 16 16 16 16 16 16 15 15 14 13 12 12 12 12 12 13 13 13 13 13 13 13 13 13 13 14 14 13 13 12 12 12 12 12 12 13 12 12 12 12 13 14 14 14 15 15 15 15 16 16 17 17 16 16 16 16 16 17 17 17 18 18
20 20 20 20 19 19 19 19 19 19 18 18 18 18 18 17 17 17 17 16 16 16 16 16 16 16 16 16 16 16 15 14 13 12 12 12 12 12 12 13 13 13 13 13 13 13 13 13 13 13 13 13 12 12 13 12 12 12 12 12 12 12 11 11 12 13 13 14 14 15 15 15 15 16 16 16 16 16 16 16 16 16 17 17 17
20 20 20 20 20 20 19 19 19 19 19 18 18 18 18 18 17 17 17 17 16 16 16 16 16 16 16 16 16 16 15 14 13 13 12 12 12 12 12 13 13 13 13 13 13 13 13 13 13 13 13 13 13 13 13 13 13 13 13 12 12 12 12 11 11 12 12 12 13 13 14 14 14 14 14 14 14 15 16 17 17 17 17 17 16
20 20 20 20 20 19 19 19 19 19 19 19 18 18 18 18 18 17 17 17 16 16 16 16 16 16 16 15 15 15 15 14 13 13 12 12 12 12 12 13 13 13 13 14 13 13 13 13 13 13 13 13 13 12 12 13 13 13 13 13 13 13 13 12 12 12 11 11 11 12 12 13 13 13 13 13 13 14 15 16 16 16 16 16 16
20 20 20 20 20 20 19 19 19 19 19 19 18 18 18 18 18 17 17 17 17 17 16 16 16 16 16 15 15 15 15 14 13 13 12 12 12 12 12 13 13 13 14 14 13 13 13 13 13 13 13 13 13 12 11 12 12 12 13 13 14 14 13 13 12 12 12 12 11 12 12 12 12 12 12 12 13 13 13 13 14 14 15 15 15
21 21 20 20 20 20 20 20 19 19 19 19 19 18 18 18 18 17 17 17 17 17 17 16 16 16 16 15 15 15 15 14 13 13 13 12 12 12 12 13 14 14 14 14 14 14 13 13 13 13 13 13 13 12 11 11 11 12 13 13 14 14 14 13 13 12 12 12 12 12 12 12 11 11 11 12 12 12 12 12 13 13 14 15 16
21 21 20 20 20 20 20 20 19 19 19 19 19 19 18 18 18 18 17 17 17 17 17 16 16 16 16 15 15 15 15 14 13 13 13 12 12 12 13 14 14 14 14 14 14 14 14 13 13 13 13 13 12 11 11 11 11 12 13 13 13 14 14 14 13 12 12 12 12 12 12 11 11 11 11 11 11 11 11 12 13 14 14 15 17
21 21 21 21 21 20 20 20 20 19 19 19 19 19 19 18 18 18 17 17 17 17 17 17 17 16 16 16 15 15 15 14 13 13 13 12 12 12 13 14 14 15 15 14 14 14 14 13 13 12 12 12 11 10 10 10 10 11 12 13 13 13 14 14 13 13 12 12 12 12 12 11 11 10 10 11 11 11 11 11 13 14 14 15 16
21 21 21 21 21 20 20 20 19 19 19 19 19 19 19 18 18 18 17 17 18 17 17 17 17 17 16 16 15 14 14 14 13 13 13 13 12 12 13 14 14 14 15 15 14 14 14 14 13 12 12 11 11 10 10 10 10 11 11 12 13 13 14 14 13 12 12 12 12 12 12 12 11 10 10 10 10 11 11 11 11 12 13 13 15
21 21 21 21 20 20 19 19 19 19 19 19 19 18 18 18 18 18 17 18 18 18 18 17 17 17 16 16 15 14 14 14 14 13 13 13 13 12 13 14 14 14 14 15 14 14 15 14 13 12 11 11 11 10 10 10 10 10 10 11 12 13 13 12 12 12 12 12 12 12 12 12 11 11 11 10 10 10 10 10 11 11 12 13 13
21 21 21 20 20 20 19 19 18 18 18 18 18 18 18 18 18 17 17 17 18 18 17 17 17 17 16 16 15 15 14 14 14 13 13 13 13 13 13 13 14 14 14 14 15 15 15 15 14 12 11 11 10 9 9 9 9 9 9 10 11 12 11 11 11 11 11 12 12 13 12 12 12 12 11 11 10 10 10 10 10 10 11 12 12
21 21 20 20 20 19 19 18 18 17 17 17 17 17 17 17 17 17 17 17 17 17 17 17 17 17 17 16 16 15 15 14 14 14 13 13 13 13 13 13 13 14 14 14 15 15 15 14 13 12 11 11 10 9 9 9 8 8 9 9 10 10 10 10 10 10 11 12 12 13 13 12 12 12 12 11 10 10 10 10 10 10 10 11 11
21 21 20 20 20 19 19 18 18 17 17 17 17 17 17 17 17 17 17 17 17 17 17 17 17 17 17 16 16 16 15 15 14 14 14 14 13 13 13 13 13 13 13 14 14 14 14 14 13 12 11 10 10 9 9 9 9 9 9 9 9 10 9 9 9 9 10 11 12 13 13 12 12 12 12 12 11 10 9 10 10 10 10 10 10
20 20 20 19 19 19 19 18 18 17 17 17 17 17 17 17 17 17 17 17 17 17 17 17 17 17 17 17 17 17 16 15 15 14 14 14 14 13 13 13 13 13 13 13 13 14 13 13 12 11 11 10 10 10 10 10 10 10 9 9 9 9 9 9 9 10 10 11 12 12 12 12 11 11 11 11 10 9 10 11 10 10 10 9 9
20 20 19 19 19 19 19 18 18 18 17 17 17 17 17 17 17 17 17 17 17 17 18 18 18 17 17 17 17 17 17 16 16 15 14 14 14 14 14 13 13 13 12 12 13 13 12 12 11 11 11 10 10 10 10 10 10 10 10 9 9 10 10 10 10 10 11 12 12 11 11 10 10 10 10 9 9 9 10 10 10 9 9 9 9
20 19 20 20 19 19 19 18 18 18 17 17 17 17 17 17 17 17 17 17 17 18 18 18 18 18 18 18 17 17 17 17 16 16 15 14 14 14 14 14 13 13 13 12 12 12 12 11 11 11 11 10 10 11 11 11 10 10 10 10 10 10 10 10 10 11 11 11 11 11 11 10 9 10 9 9 8 9 9 9 9 9 9 9 8
19 20 20 20 19 19 19 18 18 18 18 17 17 18 18 18 18 18 18 18 18 18 18 18 18 18 18 18 18 17 17 17 17 16 15 15 15 15 14 14 13 13 12 12 12 12 12 11 11 11 11 11 11 11 11 11 10 10 10 10 10 10 10 11 11 11 11 11 10 10 10 10 9 10 10 9 8 8 9 10 10 10 10 9 9
20 20 20 20 20 19 19 18 18 18 18 18 18 18 18 18 18 18 18 18 18 18 18 18 18 18 18 18 18 17 17 17 17 17 16 16 16 16 15 14 14 13 13 13 13 13 12 12 11 12 12 12 12 13 13 12 11 11 10 10 10 10 10 11 11 11 11 11 10 9 9 9 10 10 10 10 10 9 9 10 10 10 10 10 10
19 19 20 20 20 19 19 18 18 18 18 18 18 18 18 18 18 18 18 17 17 17 17 17 17 17 17 17 17 18 18 17 17 16 16 15 15 15 15 15 14 14 13 13 13 13 13 13 13 13 14 14 14 14 15 14 13 12 11 10 10 10 11 11 11 11 11 11 11 10 9 9 9 9 10 10 10 10 10 10 11 10 10 11 11
19 19 20 20 20 19 19 19 19 18 18 18 18 18 18 17 17 17 17 16 16 16 16 16 16 16 16 16 16 16 17 16 15 15 15 14 14 14 13 13 13 13 13 12 12 12 13 13 14 14 14 14 14 15 15 15 13 12 12 11 10 11 11 11 11 11 11 11 12 12 11 9 9 9 10 10 10 11 11 10 10 10 10 11 11
19 20 20 20 20 20 19 19 19 19 19 18 18 18 18 18 17 17 17 16 16 16 15 16 16 15 15 15 15 15 15 15 14 14 14 13 13 13 12 12 12 12 12 11 11 12 13 13 14 14 14 14 14 14 15 14 14 13 12 12 12 11 11 11 11 11 11 12 12 12 11 10 9 9 10 10 11 11 11 11 10 10 11 11 11
20 20 21 20 20 19 19 19 19 19 19 18 18 18 18 18 18 17 17 16 16 16 15 15 15 15 15 14 14 14 14 14 14 13 13 13 12 12 12 11 11 11 11 10 10 11 12 13 13 13 13 14 14 15 14 14 14 13 13 13 13 13 12 12 11 11 12 12 11 11 11 10 10 9 9 9 10 11 12 12 12 12 12 12 10
20 20 21 21 20 19 19 19 19 18 18 18 18 18 18 18 18 18 17 16 16 16 15 15 15 15 15 14 14 14 14 14 14 13 12 12 12 11 11 11 10 10 10 10 10 11 12 13 13 14 13 14 14 15 15 14 14 14 13 13 13 13 12 11 11 11 11 11 11 11 11 11 10 10 9 9 9 10 12 13 13 13 12 11 10
19 20 20 20 20 19 19 19 19 19 18 18 18 18 18 18 18 18 18 17 16 16 16 16 15 15 15 14 14 14 14 14 14 13 12 12 12 11 11 10 10 10 9 9 11 12 13 13 14 14 14 14 14 14 14 14 14 14 14 13 13 13 12 11 10 11 11 10 10 10 11 11 11 11 11 10 9 10 10 12 12 13 12 10 9
19 20 20 19 19 20 20 19 19 19 18 18 18 18 17 17 17 17 17 17 17 17 17 16 16 15 15 15 14 14 14 14 13 13 13 12 12 11 10 10 10 10 10 9 11 12 13 13 14 14 14 14 14 14 13 13 13 13 14 14 13 12 11 11 11 11 11 10 10 11 11 11 11 11 11 11 10 10 10 11 12 12 12 10 9
19 20 20 19 19 19 19 19 19 18 18 18 18 17 17 17 17 17 17 16 16 17 17 17 17 15 15 15 14 14 14 14 13 13 13 12 12 11 11 11 13 13 12 12 12 12 13 13 14 14 14 14 14 13 13 13 13 13 14 14 13 12 11 11 11 11 11 11 11 11 11 11 11 10 10 10 10 11 11 11 11 12 11 11 10
19 20 20 19 18 18 19 18 18 18 17 17 17 17 17 17 17 17 17 17 17 17 17 17 17 16 15 15 14 14 14 14 13 13 13 13 12 11 11 12 14 14 15 14 14 13 13 13 14 14 13 13 13 13 13 13 13 13 13 14 13 13 12 11 11 11 11 11 10 10 10 10 10 10 10 10 10 10 11 11 11 11 11 11 11
18 19 19 19 18 18 18 17 17 17 17 17 17 17 17 17 17 17 17 17 17 17 17 17 17 17 17 16 15 14 14 13 13 13 13 13 12 11 11 12 13 14 14 15 15 14 14 14 14 14 13 12 12 13 13 13 13 13 13 13 13 13 13 12 11 11 11 12 11 11 11 11 10 9 9 10 10 10 10 10 11 10 10 11 11
18 19 18 18 18 18 17 16 16 16 16 16 16 17 17 17 17 17 17 17 17 17 17 17 17 17 17 17 15 14 14 14 15 15 15 14 13 13 12 13 14 14 14 14 14 14 13 13 14 14 12 12 13 13 13 13 13 13 13 13 13 13 13 13 13 13 13 13 12 12 11 11 10 9 10 10 10 10 10 10 10 10 10 11 12
18 19 18 17 17 17 17 16 16 16 16 16 16 16 17 17 17 17 17 17 17 17 17 17 17 17 17 17 16 15 15 16 16 16 16 16 15 14 14 14 14 14 14 14 14 13 13 13 14 12 11 11 13 13 13 13 13 12 12 13 13 14 14 14 14 14 13 13 12 12 11 10 10 9 10 10 10 10 11 10 10 10 11 11 12
18 18 18 17 16 16 16 15 14 14 15 15 16 16 17 17 17 17 17 17 17 17 17 17 17 17 17 16 15 14 14 15 15 15 15 15 15 15 15 14 14 14 14 14 13 13 13 13 13 12 11 11 12 12 12 12 12 12 12 13 13 13 14 14 14 14 14 13 12 11 11 10 9 9 10 10 10 11 11 10 10 10 11 11 12
18 18 17 16 15 16 15 15 15 14 14 14 16 16 17 17 17 17 17 17 17 17 17 17 17 17 16 16 15 14 13 14 15 15 15 15 15 14 14 14 14 14 14 14 13 13 13 13 13 13 12 11 10 11 12 12 12 12 12 12 13 13 14 14 14 14 13 13 12 11 11 10 10 10 10 10 10 11 11 11 11 11 11 11 11
17 17 17 16 15 15 15 15 15 14 13 14 15 16 16 17 17 17 17 17 17 17 17 17 17 17 16 15 14 13 13 13 14 14 14 14 14 14 14 14 14 14 13 13 13 12 12 12 12 12 12 11 10 10 11 12 12 12 12 12 13 13 13 14 14 14 13 13 12 11 11 10 10 10 10 10 10 11 11 11 11 11 11 10 10
16 16 16 16 15 15 15 15 15 14 13 14 14 14 15 16 16 16 17 17 17 17 16 16 17 17 16 15 14 13 13 14 14 15 14 14 14 14 14 14 14 13 13 13 12 12 12 12 11 11 12 11 11 11 11 11 11 11 12 12 12 12 13 13 14 14 13 13 12 11 11 10 11 11 10 10 10 11 11 11 11 11 11 10 10
16 16 16 16 15 15 15 15 14 14 14 13 13 13 14 15 15 16 16 16 16 16 16 16 16 16 16 15 15 14 15 15 15 14 14 14 14 14 14 13 13 13 12 12 12 12 11 11 10 10 10 10 10 10 10 10 10 10 10 11 11 12 12 13 13 14 13 13 12 12 11 11 11 11 11 11 11 11 11 11 11 11 11 10 10
16 16 16 16 16 15 15 14 13 13 12 12 12 13 13 14 14 14 14 14 15 15 15 16 16 16 16 16 16 15 15 15 15 14 14 14 13 13 13 13 13 13 12 12 12 12 11 10 9 9 9 9 10 10 10 10 10 10 10 10 11 11 12 12 13 13 13 13 12 12 11 11 11 11 11 11 11 11 11 11 10 10 10 10 10
16 16 15 16 15 15 14 13 12 12 12 12 11 12 12 12 12 13 13 13 13 13 14 16 16 16 16 16 15 15 15 15 14 14 14 13 13 13 13 12 12 12 12 12 12 11 11 10 10 9 9 9 9 9 9 10 10 10 10 10 10 11 12 12 12 12 12 12 12 12 11 11 11 11 11 11 11 11 10 10 10 10 10 10 10
15 15 15 15 15 14 14 13 13 13 12 11 11 11 11 11 11 12 12 12 12 12 14 15 16 16 16 16 15 15 14 14 14 14 13 13 13 13 13 12 12 12 12 11 11 11 11 10 10 10 9 9 9 9 9 9 9 9 10 10 11 11 11 11 11 11 11 11 11 12 11 11 11 11 11 10 11 11 10 10 10 9 9 10 10
15 15 15 15 14 14 14 13 13 13 12 11 11 11 11 11 11 11 11 12 12 12 13 14 15 16 16 15 14 14 14 14 13 13 13 13 13 13 13 12 12 12 11 11 11 11 11 10 10 10 9 9 9 9 9 9 9 9 10 10 11 11 11 11 11 11 11 11 11 11 11 11 11 11 11 10 10 10 10 10 10 9 9 9 9
15 14 14 15 14 14 14 14 13 13 12 11 11 11 11 11 11 11 11 11 12 12 12 13 14 15 15 14 13 14 14 14 14 13 13 13 13 12 12 12 12 11 11 11 11 11 11 10 10 10 9 8 9 9 9 9 9 8 9 10 11 11 11 11 11 11 11 11 10 10 11 11 11 11 10 10 10 10 10 9 9 9 9 9 9
15 14 14 14 15 15 15 14 14 13 12 12 12 12 12 12 11 11 11 11 12 12 12 12 12 13 13 13 13 13 13 13 13 13 12 12 12 11 11 10 10 11 11 11 10 11 11 10 10 10 10 9 9 9 8 9 9 8 9 10 11 11 11 11 11 11 11 10 10 10 10 10 11 11 10 10 10 10 10 9 9 9 9 9 9
Height
816 816 816 816 817 817 817 817 817 818 818 818 818 819 819 820 821 821 822 822 822 822 822 821 821 820 820 820 819 819 819 818 818 818 817 816 816 815 814 814 813 812 811 811 810 809 808 806 805 804 803 802 800 798 797 796 795 794 793 792 791 790 789 788 787 784 783 783 782 782 782 782 782 782 783 783 783 783 784 785 785 785 785 786 786
814 815 815 815 815 815 815 815 815 816 816 816 817 817 818 818 819 820 820 821 821 821 821 821 820 820 819 819 818 818 818 817 817 817 816 815 815 814 814 813 812 811 810 809 809 808 806 805 804 803 802 801 799 798 796 795 794 793 792 791 790 789 789 788 786 784 782 781 781 781 781 781 780 781 781 781 781 782 782 782 783 783 783 783 784
813 813 813 813 813 813 813 813 813 814 814 815 815 816 816 817 818 819 819 820 820 820 820 820 820 819 819 818 817 817 817 816 816 815 815 814 814 813 813 812 811 810 809 808 807 807 805 804 803 802 801 800 799 797 795 794 793 792 791 790 789 788 788 787 786 784 782 781 780 780 779 779 779 779 780 780 780 780 780 780 780 780 780 780 781
812 812 812 811 811 811 811 811 812 812 812 813 814 814 815 816 817 817 818 818 819 819 819 819 819 818 818 817 816 816 816 815 814 814 813 813 812 812 812 811 810 809 808 807 806 805 804 803 801 800 799 798 797 796 794 793 792 791 790 789 788 788 787 786 785 784 783 781 780 779 779 778 778 778 778 778 778 778 778 778 778 778 778 778 778
811 810 810 810 810 810 810 810 810 810 811 812 812 813 813 814 815 816 816 817 817 818 818 818 818 817 817 816 815 815 814 814 813 812 812 812 811 811 810 810 809 808 807 806 806 804 803 801 800 799 798 797 796 794 793 792 791 790 789 788 788 787 786 785 784 784 783 781 779 778 777 777 776 776 776 776 776 776 776 776 776 775 775 775 775
810 809 809 809 809 808 808 808 809 809 810 810 811 812 812 813 813 814 815 815 816 816 816 816 816 816 816 815 814 813 813 813 812 811 811 810 810 809 809 808 808 807 806 805 805 803 802 800 799 798 797 796 794 793 792 791 790 789 788 788 787 786 785 784 783 782 782 780 778 777 776 775 774 774 774 774 774 774 773 773 773 773 773 772 772
809 809 808 808 808 808 807 808 808 808 809 809 810 811 811 812 812 813 813 814 814 814 814 815 815 815 814 814 813 813 812 812 811 810 810 809 808 808 807 807 806 805 805 804 803 802 801 799 798 797 795 794 793 792 791 790 789 788 788 787 786 785 784 783 782 781 780 778 777 777 775 773 772 771 771 771 771 771 771 771 770 769 769 769 770
808 808 808 807 807 807 807 807 807 808 808 809 809 810 810 811 811 811 812 812 812 813 812 813 813 813 813 812 812 811 811 811 810 809 809 808 807 806 806 805 804 804 803 802 802 801 799 798 797 795 794 793 792 791 790 789 788 787 787 786 785 784 783 782 781 780 779 777 776 775 774 773 771 769 769 768 768 768 768 768 768 767 767 767 767
807 807 807 807 807 807 807 807 807 808 808 808 809 809 809 810 810 810 810 810 811 811 811 811 811 811 811 811 810 810 810 810 809 809 808 807 806 805 805 804 803 802 802 801 800 799 798 796 795 794 793 792 791 790 789 788 788 786 786 785 785 784 782 781 780 779 778 776 775 774 773 772 770 768 767 767 766 765 765 766 765 765 765 764 764
806 806 806 806 806 806 807 807 807 807 807 808 808 808 808 809 809 809 809 809 809 809 809 809 809 809 810 809 808 808 809 809 808 808 807 807 806 805 804 803 802 801 800 799 799 798 796 795 794 793 792 791 790 789 788 787 787 786 785 784 783 783 782 781 779 778 777 775 774 773 772 770 769 767 767 767 766 764 764 764 763 763 763 762 762
805 805 805 804 805 805 805 806 806 806 806 806 807 807 807 807 807 807 807 807 808 808 808 808 807 808 808 807 806 806 807 807 806 806 806 806 805 804 803 802 801 800 799 798 797 796 795 794 792 791 790 789 788 788 787 786 785 784 783 782 782 781 780 780 778 777 776 774 773 772 771 769 768 767 766 766 766 765 763 763 763 762 761 760 760
804 804 803 803 803 804 804 804 804 804 805 805 805 805 805 805 806 806 806 806 806 806 806 806 806 806 806 805 804 804 805 805 805 805 805 804 804 803 802 801 800 798 797 796 796 794 793 793 791 790 789 788 787 786 785 784 783 782 782 781 780 779 778 778 778 776 776 774 773 772 771 769 768 767 765 764 765 764 763 762 762 762 760 760 759
803 802 802 802 802 802 802 802 802 803 803 803 803 804 804 804 804 804 804 804 804 804 804 804 804 804 804 803 803 802 803 803 803 803 803 802 802 802 801 800 798 797 796 795 794 793 792 791 790 789 788 786 785 784 783 783 782 781 780 779 778 777 777 776 776 776 775 774 773 772 771 769 768 766 765 765 765 764 763 762 761 760 759 759 758
801 801 801 800 800 800 801 800 800 801 801 801 802 802 802 802 802 802 802 802 802 802 802 802 802 802 802 802 801 801 801 801 801 801 801 801 800 800 799 798 797 796 794 793 792 792 791 790 788 787 786 785 784 783 782 782 781 780 779 778 776 775 775 774 774 773 773 773 772 771 770 770 768 766 766 765 765 764 763 761 760 760 759 758 758
799 799 799 799 799 799 799 798 798 798 798 799 799 800 800 800 800 800 800 800 800 800 800 800 800 800 799 799 799 799 799 799 799 799 799 799 798 798 797 797 795 794 792 791 791 790 789 788 787 785 785 783 782 781 781 781 780 779 778 777 775 774 773 772 771 771 771 771 770 769 769 768 767 766 765 765 764 764 763 762 761 760 759 757 756
797 797 797 797 797 796 796 796 796 796 796 796 796 797 797 798 798 798 798 798 798 798 798 798 797 797 797 797 797 797 797 796 796 797 797 797 796 796 795 794 792 791 790 789 788 787 787 786 785 784 783 782 780 780 780 780 779 778 777 775 774 772 771 770 769 769 769 769 768 767 767 766 766 765 764 764 764 763 762 761 760 759 758 756 754
795 794 794 794 794 794 794 794 794 794 794 794 794 794 794 795 795 796 796 796 795 795 795 795 795 795 795 795 795 795 794 794 794 794 795 794 794 794 793 791 789 788 788 787 786 785 784 784 783 783 782 780 779 778 778 778 777 776 775 774 772 771 769 768 767 766 766 766 766 765 764 764 763 763 763 763 762 762 762 760 758 757 755 753 751
792 792 792 792 791 792 792 791 792 792 791 791 791 791 792 792 792 793 793 793 793 793 793 792 792 792 792 792 792 792 792 792 792 792 792 792 792 792 791 789 787 786 785 784 783 782 782 781 781 781 781 780 778 777 777 777 776 775 773 772 771 769 767 766 765 764 764 763 763 762 762 762 761 761 761 761 760 760 760 759 757 755 753 751 748
790 790 790 790 790 789 789 789 789 789 789 788 788 788 789 789 789 789 790 790 790 789 789 789 789 789 789 790 790 790 790 790 789 790 790 790 790 790 789 787 786 784 783 782 781 780 780 779 778 778 779 778 777 776 775 775 774 773 772 771 770 768 767 765 764 764 763 762 761 760 760 760 760 759 759 759 759 758 758 757 756 755 752 751 749
788 788 788 788 788 788 787 788 787 787 787 786 786 786 786 786 786 786 787 787 786 786 786 786 786 786 787 787 787 787 787 787 787 787 787 787 787 787 787 786 784 783 781 780 779 778 777 776 775 775 776 776 775 774 773 772 772 771 771 770 768 766 765 764 763 763 762 760 759 759 758 759 759 758 758 758 758 757 756 755 755 754 753 751 749
785 786 786 786 786 786 785 785 785 785 785 784 784 784 783 783 783 783 783 784 783 783 783 784 784 784 784 784 784 784 784 784 784 784 784 785 785 784 784 784 782 781 780 778 777 775 774 775 774 773 774 774 773 772 771 770 769 768 768 767 766 765 764 763 762 761 760 759 757 757 757 757 757 757 756 756 756 756 755 754 753 753 753 751 750
783 783 783 783 783 783 783 783 783 783 783 783 782 782 781 781 781 780 780 781 780 781 781 781 781 781 781 781 781 781 781 781 781 781 781 781 782 782 782 781 781 780 779 777 776 774 773 774 774 773 772 772 771 770 769 768 767 766 765 764 763 763 762 761 761 760 758 757 755 755 755 755 755 755 754 755 755 754 753 752 752 751 751 750 749
781 781 781 781 781 781 781 781 781 781 781 780 780 779 779 778 778 778 778 778 778 777 777 778 778 777 777 777 777 777 778 777 777 778 778 778 779 779 779 779 779 779 778 776 775 774 773 773 773 772 771 771 770 768 767 766 764 763 762 761 760 760 759 759 758 757 756 755 754 753 753 753 753 754 754 754 754 753 752 751 751 751 750 749 748
778 778 778 778 778 779 779 779 779 778 778 778 778 777 777 776 776 776 775 775 775 774 774 774 774 774 774 774 774 774 774 774 774 774 774 775 775 776 776 776 776 776 776 775 774 773 772 771 771 770 770 769 768 766 765 764 762 761 760 759 758 757 756 756 756 755 755 754 753 753 752 752 753 753 754 754 753 752 751 750 749 749 749 748 748
775 775 775 776 775 776 776 776 776 776 776 776 776 775 775 774 773 773 773 772 772 771 771 771 771 771 771 770 770 770 771 771 771 771 771 772 772 772 773 773 773 773 773 772 772 771 770 769 769 769 768 767 766 765 763 762 760 759 757 756 755 754 754 754 754 754 753 753 753 753 752 753 753 753 753 753 752 752 751 749 749 749 750 750 749
772 772 772 772 773 773 773 773 773 773 773 773 773 773 772 771 771 770 770 769 769 769 768 768 767 767 767 767 767 767 767 767 768 768 768 769 769 769 770 770 770 770 769 769 769 768 767 767 767 767 766 765 764 763 761 760 759 757 755 755 754 753 753 752 752 752 752 752 752 752 752 752 752 752 752 753 753 752 751 750 751 751 752 752 751
768 768 769 769 769 770 770 770 770 770 771 771 770 770 769 769 768 767 767 766 766 766 765 765 764 764 764 763 763 764 764 764 764 764 765 765 766 766 766 766 767 767 766 766 766 765 765 765 764 764 764 763 761 760 758 758 757 756 755 754 753 752 752 751 751 751 751 751 752 752 751 751 751 752 752 752 753 752 752 752 753 753 752 752 752
764 765 765 765 766 766 766 767 767 768 768 767 767 767 766 766 765 765 764 764 764 763 763 763 762 762 761 761 761 761 760 760 761 761 761 762 762 762 762 763 763 764 764 763 763 763 763 763 762 762 761 760 758 756 755 755 755 755 754 753 752 751 751 750 750 750 750 750 751 751 751 750 751 752 752 752 752 752 752 753 753 752 752 752 752
760 761 761 762 762 763 763 763 764 764 764 764 764 764 763 763 763 762 762 762 762 762 761 761 760 760 759 759 758 758 757 757 758 758 759 760 760 761 761 761 761 761 761 761 761 762 761 760 760 758 757 756 755 752 751 752 753 753 753 752 751 750 750 749 749 749 749 749 749 750 751 751 750 751 752 751 752 752 752 752 752 752 752 752 752
756 757 757 758 758 759 759 760 760 761 761 761 761 760 760 760 760 760 760 760 759 760 759 759 759 758 758 757 757 756 756 756 756 756 757 757 758 758 759 759 759 759 759 759 760 760 759 757 756 755 753 753 753 751 748 749 751 752 751 750 750 749 749 749 748 748 748 748 748 748 749 750 750 750 750 750 750 751 751 752 752 752 752 751 751
753 752 752 753 754 755 756 756 757 758 758 758 758 758 757 757 757 757 757 757 757 757 757 756 756 756 756 755 755 754 754 754 754 755 755 755 755 755 755 756 756 756 756 757 757 757 756 755 754 753 752 751 750 749 747 747 748 749 749 748 747 747 747 747 747 747 747 747 747 747 748 750 749 749 749 749 750 750 751 751 751 751 751 751 752
749 748 748 749 750 751 752 753 754 755 755 755 755 755 755 755 754 754 754 755 755 755 754 754 754 754 753 753 752 752 752 752 752 752 752 752 752 752 752 752 753 753 753 754 754 754 753 752 751 751 750 749 747 746 746 745 745 746 747 746 745 744 745 745 745 745 745 745 746 747 747 748 749 749 749 750 750 751 750 749 749 749 749 751 753
745 744 744 744 746 747 749 749 750 751 751 752 753 753 753 753 752 751 752 752 753 752 752 752 751 751 751 750 750 749 749 749 749 749 749 749 749 749 749 749 749 750 750 750 751 750 750 749 748 747 747 746 743 743 743 743 743 742 743 744 743 742 743 744 744 744 744 744 745 746 746 748 749 749 749 749 750 751 751 749 748 748 749 751 753
741 740 740 741 742 743 745 746 747 748 748 749 749 750 750 750 750 750 750 750 750 749 749 749 748 748 748 748 747 747 747 747 747 747 746 746 746 746 746 746 746 746 747 747 747 746 745 745 743 743 743 742 741 740 741 742 741 741 741 742 741 741 742 742 742 743 743 744 745 745 745 747 748 748 748 748 749 750 751 750 748 748 749 751 752
738 737 737 738 739 740 741 743 744 745 746 746 746 747 748 748 748 749 749 748 748 747 746 745 745 745 745 745 745 745 745 744 744 744 744 743 743 743 743 743 743 743 743 743 743 742 741 740 740 739 739 739 739 739 740 740 740 740 739 740 740 740 740 741 741 741 742 743 743 744 744 746 746 747 747 748 748 749 750 749 748 747 748 750 752
735 734 734 735 736 737 739 740 741 743 744 744 744 745 745 745 745 746 746 746 746 745 744 743 742 742 743 743 742 742 742 742 742 741 741 741 740 740 741 740 740 739 738 738 738 738 737 737 736 736 737 737 738 738 738 738 738 738 737 737 737 738 739 739 740 740 741 741 742 742 743 744 745 746 746 747 748 748 748 748 748 748 748 749 751
732 732 731 731 732 734 736 738 740 741 743 743 743 743 743 743 743 744 743 743 743 742 742 741 741 740 740 739 739 740 740 740 739 739 738 738 737 737 738 737 736 735 734 733 733 733 734 734 733 733 734 735 736 736 735 735 735 735 735 735 736 736 737 737 738 739 739 740 741 741 742 743 743 745 745 746 747 747 748 748 748 748 749 749 750
729 728 727 727 728 729 732 735 738 740 741 741 741 741 741 741 741 741 741 740 740 740 740 739 739 738 737 736 736 737 737 737 736 735 735 734 734 734 734 734 733 732 731 730 730 730 731 731 730 731 732 733 733 732 732 732 732 733 733 734 734 733 734 735 736 737 737 737 738 739 740 741 742 743 744 745 746 747 747 747 748 749 749 750 750
725 724 724 725 725 726 728 732 736 738 738 738 739 739 738 738 738 738 738 738 738 738 738 737 736 736 735 734 734 735 734 734 733 731 731 730 731 731 731 731 730 729 728 727 727 727 728 728 727 727 729 730 729 729 729 729 730 730 731 731 731 731 732 733 733 733 734 734 735 737 738 740 741 742 743 744 745 746 747 747 748 748 749 749 749
722 721 720 721 723 724 725 728 732 734 735 735 735 736 736 735 735 735 735 735 735 735 734 734 733 733 732 732 733 733 733 731 730 729 728 728 728 728 728 728 727 726 725 725 725 725 725 725 724 725 726 726 726 726 726 726 727 728 728 729 729 729 729 729 730 730 731 732 734 735 737 738 739 740 741 742 744 745 746 747 747 748 749 749 749
720 718 717 717 719 720 722 724 728 730 732 733 733 732 732 732 732 732 732 732 732 732 732 731 731 730 730 730 730 731 732 730 729 727 726 726 725 726 725 725 724 724 723 722 722 722 722 722 722 722 723 723 724 724 724 724 725 725 726 726 727 727 727 727 727 728 729 730 732 733 735 736 738 739 740 741 742 744 745 746 747 747 748 749 749
718 716 715 715 715 716 718 720 722 725 728 729 730 729 729 729 729 729 728 728 728 729 729 729 728 727 727 726 727 729 729 729 727 726 725 724 724 723 723 723 722 721 720 720 720 720 719 719 719 719 720 722 723 724 723 722 723 723 723 724 725 725 725 725 726 726 727 729 730 732 733 735 736 737 739 740 741 742 743 744 746 747 748 749 750
716 714 713 712 712 712 713 715 717 720 722 725 727 727 726 725 725 725 725 725 725 725 725 725 725 725 724 723 724 726 727 726 725 723 722 722 722 721 721 720 719 719 718 718 718 718 717 717 717 718 718 720 721 721 721 721 720 720 721 721 722 723 723 724 724 725 726 727 729 730 732 733 734 736 737 739 740 741 742 743 744 746 747 749 750
713 712 711 710 709 709 710 711 713 714 716 719 723 725 724 723 722 721 721 721 720 720 721 722 722 722 722 721 722 723 723 723 722 721 720 720 719 719 719 718 717 717 717 716 716 716 716 716 716 716 716 717 717 718 718 718 718 718 719 719 720 721 721 722 722 723 724 725 727 728 730 731 733 735 736 737 739 740 741 742 743 744 746 747 749
710 709 708 707 706 706 706 706 707 709 710 713 717 719 720 720 719 718 717 717 716 716 718 718 718 718 719 719 719 720 720 719 718 718 718 718 717 717 716 716 715 715 715 715 714 714 714 714 713 713 713 713 714 715 715 716 716 716 716 717 717 718 719 720 720 721 722 723 724 726 727 729 731 733 734 735 737 738 740 741 742 744 745 746 747
708 706 705 704 704 703 703 704 706 707 710 711 713 714 716 717 716 716 715 714 714 715 715 715 714 714 715 715 715 716 716 716 716 715 716 716 715 715 714 714 714 713 713 713 712 712 712 712 711 710 710 710 711 711 712 712 713 713 713 714 714 715 716 718 718 719 720 721 722 723 725 726 728 730 732 733 735 737 738 740 741 743 744 746 747
706 704 703 702 702 701 702 703 705 707 709 710 711 712 714 714 715 715 714 714 714 715 714 711 710 710 710 711 712 713 713 713 713 713 713 713 713 713 713 712 712 712 711 711 711 710 710 710 709 708 708 708 708 708 708 708 709 709 710 710 711 712 713 715 716 716 718 719 719 721 722 723 725 727 729 731 733 735 736 738 740 741 743 745 746
704 703 701 700 699 699 698 699 701 703 705 707 708 709 709 710 711 712 712 712 713 714 713 709 706 706 706 707 709 710 711 711 711 711 712 711 711 711 711 711 711 710 710 709 709 708 708 707 707 707 706 705 705 705 705 705 705 705 705 706 707 708 709 711 712 714 715 716 717 718 720 721 723 725 726 728 730 732 734 736 738 740 742 744 745
702 701 699 698 698 697 696 696 697 699 701 703 705 705 705 706 707 707 707 708 709 710 710 708 704 702 703 705 706 708 709 709 709 710 710 710 709 709 709 709 709 708 708 708 707 706 705 705 704 704 704 703 702 702 702 702 702 702 701 702 703 704 706 707 709 711 712 713 715 716 717 718 720 722 724 725 728 730 732 734 735 738 740 742 744
701 699 698 697 696 695 695 695 696 697 698 700 701 700 700 700 700 700 700 701 702 704 706 705 703 701 701 704 705 705 706 706 707 707 708 708 708 707 707 707 707 706 706 705 704 704 703 703 702 702 702 700 699 699 698 698 698 698 699 699 700 701 702 704 706 708 709 710 712 713 714 716 718 719 721 723 725 727 729 731 733 735 738 740 741
699 697 696 695 694 694 694 694 694 695 696 696 696 696 695 694 694 695 695 696 697 698 699 702 702 702 702 703 704 704 704 704 705 705 706 706 706 706 706 706 705 704 704 703 703 702 702 701 700 699 699 699 698 697 696 695 695 695 696 697 697 698 699 701 703 704 706 707 709 711 712 713 715 716 718 720 723 724 726 728 730 733 735 737 739
Wind_Speed
8 8 8 8 9 9 9 9 8 8 9 9 9 10 9 8 7 7 6 5 4 4 6 7 6 5 5 5 6 6 6 7 7 7 8 7 8 8 8 9 9 9 9 9 10 10 11 12 12 13 13 14 14 13 13 13 13 13 13 13 13 12 11 12 11 10 12 13 12 12 11 11 11 11 12 12 13 14 14 14 14 15 14 13 14
7 7 7 8 9 9 9 8 8 8 8 9 9 9 9 9 8 7 6 6 5 5 5 6 6 6 5 5 6 6 7 8 8 8 8 8 8 8 9 9 10 10 9 9 10 11 12 13 13 13 12 12 14 13 13 13 13 13 14 13 13 12 11 12 13 12 12 13 13 13 11 11 12 12 12 13 13 13 14 14 14 15 14 14 14
6 7 7 8 8 9 9 9 9 9 8 9 9 9 9 9 8 8 7 6 6 6 5 5 6 6 6 7 7 7 8 8 9 9 9 9 9 8 9 10 10 10 10 10 10 11 12 13 13 13 12 11 12 13 13 13 13 13 14 13 13 12 11 12 13 13 13 14 14 14 13 12 13 13 13 13 13 12 13 14 14 15 14 14 14
5 6 7 7 8 8 8 8 8 8 8 8 8 8 9 9 8 8 7 7 7 6 6 6 6 6 7 7 7 8 9 9 9 10 10 10 10 10 10 10 11 11 11 10 11 12 12 13 13 13 12 11 11 11 10 11 12 13 14 13 12 12 12 12 13 12 13 14 14 14 14 12 12 12 12 13 13 13 14 15 15 15 15 14 14
4 4 6 6 7 7 8 8 8 8 7 7 7 8 8 8 8 8 8 8 7 7 7 7 7 6 7 8 8 9 9 10 10 11 10 10 11 11 11 11 11 11 11 11 11 12 12 13 13 12 12 11 11 10 9 10 11 13 13 13 12 12 12 13 14 13 12 14 15 14 14 13 13 12 12 13 13 14 15 15 16 16 15 15 14
3 4 5 5 6 6 6 7 7 7 7 6 6 7 7 7 7 8 8 8 7 7 8 8 7 7 7 8 9 9 9 10 10 11 11 10 11 11 12 12 12 12 11 11 12 12 13 13 13 12 11 10 10 10 9 10 11 12 12 13 12 12 12 13 14 13 13 15 15 15 14 13 12 12 13 14 13 13 14 15 15 15 15 15 14
4 4 4 4 4 4 4 5 5 6 6 6 6 6 6 7 7 7 8 8 8 8 8 8 8 8 8 8 9 9 9 9 9 9 10 10 11 11 12 12 12 11 11 11 12 12 13 13 12 12 11 10 11 11 11 11 11 11 11 12 11 10 11 12 13 12 13 14 14 14 14 13 12 12 13 13 13 14 14 14 14 14 14 14 14
4 3 2 2 2 2 3 4 5 5 5 6 5 5 6 6 7 7 7 8 8 8 9 9 8 8 8 8 9 9 9 9 8 8 9 9 10 11 11 11 11 11 11 11 11 13 13 13 12 12 12 11 11 11 12 10 9 9 10 10 10 9 10 11 11 11 12 13 12 12 13 13 13 13 12 12 13 14 14 14 14 14 13 13 13
4 3 3 2 2 2 3 4 4 5 5 5 5 5 6 6 6 7 7 8 8 8 9 9 9 9 8 8 9 8 8 8 7 7 9 10 10 10 10 10 11 11 12 12 12 13 13 13 12 12 13 13 12 11 11 10 10 10 10 10 10 10 11 12 11 10 11 11 12 11 11 12 13 13 13 13 13 12 12 11 12 13 14 14 13
4 4 4 3 3 3 3 4 4 5 5 5 5 6 6 6 6 7 7 8 8 8 9 9 9 9 8 9 9 9 9 7 6 7 8 7 8 9 9 10 11 12 12 12 13 13 13 14 13 12 13 14 12 10 11 11 11 12 12 11 11 10 12 13 12 11 10 10 11 11 11 12 12 11 12 15 15 13 11 11 12 14 14 14 13
4 4 4 4 4 4 4 5 5 5 5 5 6 6 6 6 7 7 7 7 8 8 8 9 9 9 9 9 9 9 9 8 7 8 7 5 6 8 10 11 11 12 12 12 13 13 13 14 14 13 13 14 12 11 12 13 13 13 13 12 12 11 11 12 13 13 12 12 11 11 11 13 13 12 10 12 15 15 12 12 13 13 12 11 11
4 5 5 4 5 5 5 5 5 5 6 6 6 6 6 7 7 7 7 7 8 8 9 9 9 9 9 10 10 10 10 9 9 9 9 9 10 10 11 12 12 13 13 12 13 14 13 13 14 14 13 13 14 13 12 12 12 13 14 13 12 12 11 12 13 13 13 13 12 12 12 13 15 14 10 9 11 12 11 12 12 12 13 12 11
4 5 5 5 5 5 5 6 6 6 6 6 6 6 7 7 7 8 8 8 8 8 9 9 9 10 10 10 10 10 10 9 10 10 10 11 12 11 11 12 13 13 13 12 13 14 14 14 14 14 13 13 14 14 12 10 10 12 14 14 13 12 11 12 14 14 13 13 13 13 13 13 15 15 11 8 9 10 10 11 11 11 13 13 13
5 5 5 5 6 6 6 6 7 7 7 7 7 7 8 8 8 8 8 8 9 9 9 10 10 10 10 10 10 10 9 10 11 11 12 12 12 12 13 13 14 14 14 13 13 13 14 14 14 15 14 13 14 13 11 10 11 12 13 14 14 13 13 13 14 14 14 13 13 13 14 14 16 17 14 10 10 11 11 11 10 11 12 12 11
6 6 6 7 7 7 7 8 8 8 8 8 8 9 9 8 8 8 8 9 9 9 10 10 10 10 10 10 10 10 10 11 12 13 13 13 14 14 14 13 14 14 14 13 13 13 14 14 14 15 15 14 14 14 11 9 10 11 12 13 14 14 14 14 14 13 13 12 12 13 13 13 14 15 14 12 12 12 11 11 12 11 12 13 11
8 8 8 8 9 9 9 9 9 9 9 9 9 10 10 10 10 9 9 9 9 10 10 10 10 10 10 10 11 11 11 12 13 13 12 12 13 13 13 13 13 13 13 13 13 14 14 14 14 14 15 15 15 15 13 11 11 11 12 13 14 15 15 13 13 13 14 14 14 15 14 15 16 16 16 15 14 12 12 12 13 13 13 13 13
10 10 10 10 10 10 11 11 11 11 11 11 12 11 11 11 11 10 10 10 10 10 10 11 10 10 10 10 11 11 11 11 12 12 11 12 12 12 12 12 12 12 13 14 14 14 14 14 13 14 15 14 13 13 13 13 12 13 13 14 15 16 15 13 13 14 14 15 16 16 16 17 17 17 17 17 16 15 13 12 13 14 14 11 11
12 11 11 11 11 11 11 12 12 13 13 13 13 13 13 13 12 12 11 11 11 11 11 11 11 10 10 10 11 11 10 11 12 12 12 12 13 12 12 12 13 13 13 14 14 14 14 13 12 11 12 13 13 13 13 13 13 13 14 15 15 16 15 14 13 13 14 15 15 14 15 15 15 14 13 15 16 15 14 14 15 16 15 14 12
13 12 12 12 12 12 12 13 14 14 14 14 14 14 14 14 13 13 13 13 13 13 13 12 12 11 10 10 11 12 11 11 12 12 11 12 13 12 12 12 13 13 13 13 13 12 13 13 12 10 9 11 13 14 14 14 14 14 14 15 16 16 15 14 14 15 15 15 15 12 11 11 10 9 9 11 13 13 13 15 16 16 16 18 17
14 13 12 12 12 12 13 13 13 13 14 14 13 13 14 14 14 14 14 15 15 14 14 13 13 12 11 11 11 12 11 10 11 12 12 12 13 12 11 12 13 13 13 12 12 12 12 12 10 7 6 11 15 16 16 15 16 16 15 15 16 17 16 16 18 19 19 17 16 13 10 10 10 8 7 8 9 9 10 11 12 14 16 17 17
14 13 12 12 12 12 12 12 12 12 12 12 11 12 12 13 14 14 15 15 15 15 14 14 14 13 12 12 12 12 11 11 11 13 14 13 12 11 11 10 11 12 12 12 12 12 11 10 7 5 8 15 17 17 16 15 15 16 16 16 17 19 20 20 20 20 20 18 16 13 10 11 11 9 7 6 6 6 7 8 8 10 12 12 11
14 13 13 13 12 11 11 10 10 10 11 11 11 12 12 12 13 13 14 15 15 15 16 15 15 15 14 13 13 13 13 13 12 13 15 14 13 12 11 10 10 11 12 13 12 11 11 10 8 9 13 15 14 14 14 13 13 15 16 16 18 20 20 20 19 18 18 17 14 12 11 11 11 9 6 5 6 5 5 5 5 5 7 8 8
14 14 13 12 11 10 10 11 10 10 11 12 12 12 12 12 12 12 12 13 14 15 16 16 17 16 15 14 14 13 13 13 13 13 14 15 15 14 13 12 12 11 11 12 12 12 11 9 8 11 14 13 11 12 14 14 14 16 15 16 17 17 18 19 18 17 17 15 12 11 11 10 9 8 6 5 5 5 4 4 4 4 5 6 5
14 13 13 12 11 11 11 11 11 11 11 11 11 12 12 12 12 12 11 12 14 15 16 16 16 16 16 15 14 14 13 13 13 14 15 15 16 16 15 14 13 12 12 12 12 12 11 10 11 13 14 13 13 14 14 13 14 14 15 15 15 15 15 15 13 12 12 12 10 10 9 7 6 6 5 4 4 5 6 5 4 2 3 4 3
13 13 13 13 12 11 11 12 12 12 11 10 10 11 12 12 12 12 11 12 13 14 15 15 15 15 15 15 14 14 14 13 13 14 15 15 16 16 15 14 14 14 14 13 13 13 14 13 14 15 14 14 14 14 13 12 13 12 12 13 12 10 8 8 7 8 9 9 8 7 6 4 4 5 3 3 3 2 3 3 4 4 2 1 2
14 14 14 14 13 12 12 12 13 12 12 11 11 12 12 12 12 12 12 12 13 13 14 14 14 14 15 15 15 14 14 13 13 13 14 15 16 15 14 13 14 14 15 15 15 17 18 16 14 14 14 14 14 14 13 12 11 10 9 8 7 5 5 6 7 7 7 6 5 5 3 2 4 6 5 4 3 2 2 1 1 2 2 2 4
14 15 15 14 13 12 12 12 12 12 12 12 13 13 13 13 13 12 12 12 12 13 13 13 13 14 14 14 14 14 14 13 13 12 12 12 13 13 12 12 12 14 16 17 16 17 17 16 15 14 14 14 16 17 15 11 8 7 7 7 6 6 5 6 7 6 6 5 5 5 3 3 1 5 5 4 4 4 5 3 3 3 3 3 5
17 16 15 15 13 13 12 12 12 13 13 13 13 14 14 14 13 13 14 13 12 12 12 12 13 13 13 13 13 13 14 14 14 13 11 11 11 11 10 10 10 11 13 13 12 12 12 13 13 13 13 14 15 15 13 9 6 6 7 7 7 6 6 7 6 5 5 5 5 4 3 4 5 4 4 4 4 4 4 4 4 4 4 4 4
19 18 16 15 14 13 13 12 12 13 14 14 14 14 14 14 14 14 14 13 13 13 13 12 12 11 12 12 12 13 13 12 10 10 10 10 11 10 10 10 10 10 10 11 10 10 11 12 13 13 13 13 13 12 10 8 7 7 7 7 7 7 7 7 6 5 4 5 6 5 4 5 6 5 4 3 2 2 3 4 4 4 4 4 4
18 18 17 16 15 14 13 13 13 13 14 14 14 14 14 15 16 16 15 14 14 14 14 14 13 12 13 12 11 13 14 11 10 10 12 13 14 15 15 15 14 13 14 14 13 13 13 13 13 14 13 12 13 12 11 9 8 7 7 8 8 7 6 6 7 6 4 4 6 6 5 5 5 5 4 3 2 4 5 5 5 4 5 4 3
17 18 18 17 17 15 14 13 13 13 14 13 13 13 13 13 15 16 16 16 15 14 14 14 14 14 15 16 14 15 17 17 17 18 19 20 21 21 20 19 17 16 16 16 14 13 13 13 13 13 13 13 13 13 11 10 8 7 7 8 9 8 8 8 8 7 6 5 5 6 6 5 5 6 4 2 3 5 5 5 6 6 6 5 4
19 19 19 17 16 15 15 14 14 13 13 13 13 13 12 12 12 13 13 14 15 14 13 14 13 13 15 16 17 17 18 18 19 20 19 20 20 20 19 18 16 15 16 15 14 13 13 13 13 13 14 14 14 13 12 11 10 8 8 8 9 9 9 9 8 8 7 7 6 7 7 5 5 6 5 3 4 6 6 7 8 7 6 6 7
20 21 20 17 15 15 15 15 14 14 14 14 13 12 12 12 12 11 10 12 13 14 14 14 14 14 13 14 15 16 16 16 17 17 18 18 19 18 18 17 15 15 15 15 14 14 14 15 15 14 14 15 16 15 13 12 12 10 9 9 9 8 8 7 7 8 8 7 7 7 7 6 6 6 6 5 5 6 6 7 8 7 6 7 9
21 22 21 18 15 15 15 15 15 15 15 14 14 12 12 12 12 12 11 10 11 13 14 14 14 13 12 12 13 13 14 14 15 16 16 16 16 16 16 15 15 16 16 16 15 15 15 15 15 15 14 15 15 14 12 12 13 12 10 9 8 7 6 6 7 8 9 9 8 8 8 8 7 7 6 6 6 5 5 6 6 6 6 9 10
20 22 22 22 19 16 15 15 15 15 15 15 14 13 13 13 12 12 12 12 11 12 11 12 11 10 10 11 11 12 13 13 13 14 14 15 15 14 13 13 13 14 17 18 18 17 17 16 15 15 14 14 14 13 12 12 13 13 12 9 7 6 6 7 7 8 9 9 9 9 9 8 7 6 5 5 6 5 5 6 6 5 7 10 12
19 21 22 23 21 18 16 15 14 14 15 15 14 14 14 13 11 11 12 12 12 12 12 10 9 8 9 10 11 11 11 11 12 13 13 14 14 13 12 12 13 14 15 17 18 18 18 17 16 15 13 12 13 13 13 13 13 13 13 10 7 7 7 8 7 8 9 9 9 9 9 8 7 6 5 5 5 5 4 5 5 5 7 10 12
19 21 20 19 19 19 17 14 13 14 15 15 15 14 13 12 11 11 12 12 12 12 12 11 9 9 10 11 10 9 9 9 11 12 13 14 15 15 14 14 14 15 15 15 15 16 16 15 15 14 11 11 13 15 14 13 13 13 13 11 9 8 9 9 8 8 9 9 10 11 10 9 8 9 8 7 6 5 5 5 5 5 7 9 11
19 21 22 20 18 17 15 13 13 15 15 14 15 15 14 12 12 12 13 13 12 12 12 12 11 10 10 9 8 7 8 10 11 12 14 14 15 15 15 15 15 16 16 15 14 14 13 14 15 13 11 12 14 15 14 13 13 13 12 11 11 10 10 10 10 10 10 10 10 11 11 9 9 10 10 8 7 6 6 6 6 6 8 10 12
18 21 25 24 20 15 13 11 13 15 15 15 16 16 15 15 14 13 13 14 13 13 13 13 12 11 11 8 6 5 7 10 10 11 11 11 11 12 13 13 14 15 15 15 13 12 13 15 15 12 11 12 14 14 13 13 13 13 12 12 11 10 11 12 12 11 11 11 10 11 11 10 9 10 10 10 9 8 7 7 8 8 9 11 12
17 19 23 25 22 18 15 13 12 13 15 16 17 17 17 16 16 15 15 14 14 15 14 13 13 12 11 9 7 7 9 11 11 12 11 11 11 11 12 13 14 15 14 13 12 12 13 15 13 11 12 15 15 13 13 12 12 12 12 12 12 12 12 12 12 11 11 11 10 11 11 11 11 10 11 11 10 9 8 8 8 9 10 12 11
16 15 17 22 24 21 18 16 16 16 16 17 18 19 19 18 18 17 17 16 16 16 15 14 14 14 12 10 10 10 11 12 12 12 12 12 12 13 13 14 14 14 14 13 12 12 13 13 12 12 14 15 14 13 12 12 12 13 13 12 12 13 13 12 11 11 10 10 11 12 12 13 13 12 12 12 12 10 10 10 10 10 11 11 9
16 14 14 18 23 23 20 18 19 19 19 18 20 22 21 20 19 19 18 18 18 17 16 16 15 14 12 11 11 12 12 12 13 13 12 12 13 12 12 13 13 13 14 12 11 12 13 13 13 13 12 11 11 12 13 12 13 13 13 13 13 13 14 13 12 11 10 10 11 12 12 13 14 14 12 12 12 11 10 11 11 12 12 11 10
15 15 13 15 21 25 24 22 22 22 19 17 20 23 23 21 21 21 20 20 19 18 17 17 16 15 12 11 11 11 12 12 13 13 12 12 12 12 12 12 12 12 12 11 10 11 12 12 12 12 11 10 11 13 13 12 13 14 14 14 13 13 14 14 13 12 12 11 11 12 13 13 14 13 13 13 13 12 11 12 12 13 12 12 12
14 15 15 15 18 23 24 23 23 23 20 18 22 25 23 22 22 22 22 22 21 19 18 18 17 15 13 10 10 11 12 12 12 12 11 11 12 11 12 12 11 10 10 10 10 10 11 10 11 12 12 11 10 11 11 11 12 12 13 14 13 13 14 14 14 14 13 13 13 14 15 14 14 13 13 14 14 14 13 13 13 13 13 13 13
14 14 15 16 18 22 25 26 27 26 24 23 24 25 24 23 24 23 23 24 22 18 17 18 17 16 14 13 12 12 12 12 11 11 11 11 11 10 11 10 10 9 9 9 9 10 11 11 11 12 14 13 12 11 12 13 13 14 14 15 15 14 14 15 15 15 15 14 15 16 17 16 16 14 14 14 15 15 14 14 14 13 13 13 13
15 14 15 17 17 19 20 21 21 19 19 20 21 21 21 21 21 19 21 23 21 17 17 19 18 15 14 14 14 13 12 12 11 10 10 10 10 10 9 9 8 8 9 9 9 10 11 12 11 12 14 15 14 14 14 16 17 17 18 19 19 18 16 14 13 14 14 15 15 16 17 18 18 17 16 15 15 15 15 15 15 14 14 13 13
15 14 15 16 15 15 14 14 13 13 17 20 21 19 17 16 16 17 19 21 21 20 21 21 18 15 14 14 13 12 11 11 10 10 10 10 10 9 8 8 8 9 9 10 10 10 11 12 12 12 12 13 14 14 15 16 18 20 20 21 22 23 21 18 15 14 14 14 15 15 16 18 18 18 18 18 17 16 16 16 16 16 16 14 13
14 14 15 15 15 15 15 16 17 18 21 22 21 18 17 17 17 19 21 20 20 23 25 23 18 15 13 12 11 11 11 10 9 9 10 10 9 9 9 9 9 10 11 11 12 11 12 12 13 13 13 14 15 15 15 15 16 19 22 23 23 25 25 24 21 18 16 15 15 15 16 18 18 17 19 20 18 17 17 17 17 17 17 16 14
14 14 14 15 15 15 15 18 20 21 20 19 19 19 20 20 20 21 23 23 21 22 24 25 21 15 11 10 9 9 9 10 10 10 10 9 9 10 10 10 11 12 13 13 14 14 13 13 13 13 14 16 18 19 18 18 17 18 20 23 24 25 27 26 23 20 18 16 15 15 16 17 17 17 20 21 20 18 18 18 18 18 18 17 16
13 13 13 14 15 15 14 14 16 16 14 14 17 19 20 21 22 23 24 23 21 19 19 20 18 11 8 8 9 9 9 11 11 10 10 10 10 11 12 12 12 13 14 15 15 15 14 14 14 14 14 15 18 19 21 22 21 19 20 22 24 26 28 28 26 24 21 17 16 16 17 18 17 18 19 21 20 18 18 18 18 19 19 18 17
13 13 13 14 15 15 14 13 13 13 13 16 19 19 18 19 21 22 21 21 20 18 15 14 14 11 8 9 10 9 9 9 9 9 10 11 11 10 10 10 11 12 14 15 15 15 14 14 14 14 14 14 15 15 16 18 20 20 20 22 23 24 26 27 27 27 25 20 16 16 18 19 19 19 20 20 19 18 19 20 21 21 20 19 19
Wind_Direction
218 220 220 222 224 222 222 221 221 222 222 223 225 225 226 228 225 226 234 240 255 291 320 335 338 330 315 307 304 301 303 307 310 308 303 302 302 303 307 308 309 311 313 316 318 318 317 316 313 310 306 301 294 285 275 269 268 268 269 271 271 269 269 270 271 275 276 273 270 269 268 263 257 254 252 251 252 254 254 251 245 243 241 239 244
218 221 222 224 227 228 228 226 224 223 223 224 225 222 220 224 226 227 233 234 242 274 305 321 331 333 323 315 310 307 305 304 304 302 300 303 303 302 305 307 306 306 307 310 314 318 318 316 315 314 309 302 294 286 276 269 267 268 269 268 269 270 271 271 273 277 279 275 273 273 268 261 258 255 250 250 250 251 253 252 247 244 242 240 241
226 229 229 231 231 232 230 228 226 224 224 225 225 221 219 222 225 227 232 235 243 263 284 300 316 322 321 319 313 310 310 305 300 297 296 299 299 298 303 307 308 305 303 307 314 316 316 317 318 316 314 306 294 287 278 268 264 267 269 270 274 277 274 273 275 277 279 279 276 274 271 265 261 257 252 251 250 250 252 252 248 247 245 242 240
236 237 239 239 237 235 233 230 227 226 225 226 225 220 217 221 225 227 232 236 245 261 271 280 296 306 311 314 313 312 310 306 301 295 291 292 294 296 299 301 303 304 303 306 310 311 312 316 317 316 314 307 296 289 278 265 261 265 270 273 278 282 279 277 279 282 284 281 276 273 273 269 265 261 257 254 250 247 249 252 252 251 247 242 241
253 256 254 250 243 236 232 229 225 224 224 225 222 216 215 220 223 226 231 236 245 258 264 271 282 291 299 306 310 312 310 308 305 298 290 286 287 291 292 293 296 299 300 302 305 308 311 314 315 314 312 305 298 293 280 267 263 265 272 277 279 280 281 281 284 288 286 278 273 274 275 273 270 265 259 259 258 252 249 249 250 251 248 242 240
283 281 273 262 251 236 227 223 218 216 216 214 210 209 213 219 221 225 231 237 245 252 260 267 271 278 290 301 306 308 309 309 305 299 293 286 283 285 287 289 291 293 295 298 302 307 309 311 313 311 306 299 294 291 282 274 272 272 277 282 280 279 281 282 285 289 285 278 277 278 275 273 271 267 258 253 253 255 256 255 251 248 246 242 240
298 296 284 269 253 229 214 205 199 199 199 198 200 206 212 218 224 230 233 237 243 249 257 261 259 267 283 295 302 305 307 308 303 299 296 289 284 283 283 285 287 291 293 294 299 304 306 308 309 304 299 295 291 290 288 285 282 281 283 285 281 278 283 287 291 294 290 284 282 277 274 273 270 266 260 252 249 252 256 258 257 250 244 240 240
298 291 277 261 235 203 190 183 184 185 187 192 200 206 211 217 228 235 237 240 245 248 253 255 254 260 273 287 295 298 301 303 301 301 301 296 290 286 282 282 285 289 291 292 296 300 302 305 304 298 299 300 297 296 298 299 297 293 292 294 293 288 288 289 293 294 290 286 284 279 279 280 274 266 261 252 248 249 250 253 257 256 250 244 237
286 271 251 243 227 203 184 178 181 184 188 196 201 205 213 222 231 237 240 244 246 248 251 252 254 258 268 282 289 292 295 292 292 300 301 297 293 289 285 282 284 289 292 293 295 297 299 303 301 297 302 306 300 293 295 300 302 301 301 303 301 293 286 285 286 287 287 285 284 280 277 275 272 272 273 265 254 249 249 252 253 254 256 252 243
272 259 247 234 220 211 196 188 191 195 200 206 208 213 221 228 235 240 244 246 245 247 249 250 254 257 267 281 288 291 289 279 277 288 289 289 294 292 286 283 284 289 291 291 293 295 297 300 299 297 298 299 293 284 288 295 296 297 299 298 296 290 284 284 283 281 282 283 284 283 278 274 272 276 285 287 283 274 260 254 254 254 254 253 252
262 251 244 231 218 214 207 203 207 208 211 216 219 224 229 234 240 243 243 244 243 245 247 250 253 255 266 279 286 288 282 270 270 273 258 255 281 290 291 290 287 286 287 288 290 293 294 296 300 300 293 289 288 284 285 290 294 299 300 294 288 281 276 280 285 286 284 283 284 282 279 279 280 278 278 284 288 284 274 267 266 264 260 254 253
263 252 243 235 227 224 220 221 223 220 222 227 229 233 236 240 244 244 242 242 243 243 245 250 254 254 260 272 279 284 277 262 264 268 258 258 271 279 285 289 289 288 287 288 290 292 293 295 298 300 294 290 292 288 280 280 290 302 305 300 293 281 267 262 269 279 285 288 288 284 280 283 286 285 285 286 288 287 281 273 268 268 269 262 260
261 259 249 242 237 235 236 239 241 237 236 239 239 239 243 246 246 246 245 244 243 245 247 252 256 256 256 263 273 281 273 260 262 269 267 272 279 279 280 286 289 287 285 286 289 290 293 293 294 297 295 289 286 286 284 284 289 296 300 299 296 289 277 264 258 262 270 278 283 280 279 285 288 291 300 308 300 288 278 272 268 264 264 260 261
259 262 261 255 247 244 245 247 250 250 246 244 243 245 248 251 250 248 247 244 244 247 250 253 255 257 258 260 267 273 267 256 261 266 266 273 280 281 281 284 286 285 283 284 286 288 290 292 292 295 296 289 281 282 288 291 289 289 292 293 290 284 280 272 262 258 260 264 268 271 275 283 288 293 302 304 291 283 282 282 278 269 265 266 265
261 262 264 263 257 251 251 252 252 254 252 247 245 249 251 251 251 249 246 245 246 248 252 253 253 255 257 258 263 267 262 255 260 267 270 273 277 279 280 282 283 283 282 281 283 286 289 290 290 293 296 290 282 280 282 287 289 289 289 290 289 285 280 273 264 256 254 257 264 268 274 279 279 284 291 290 283 283 287 287 281 276 276 273 263
266 265 264 264 263 259 257 256 254 255 256 252 249 251 252 251 252 250 247 247 247 248 251 252 252 253 255 256 258 263 263 261 263 270 272 273 277 277 277 283 286 283 281 283 284 285 287 288 289 293 295 288 281 277 275 279 287 291 289 289 289 288 286 282 276 266 256 258 263 266 271 276 274 274 278 278 274 272 277 279 273 266 264 263 256
268 269 266 265 266 265 262 261 258 257 258 256 253 254 254 254 253 249 248 249 248 246 247 249 250 251 252 253 255 260 265 264 265 270 272 271 275 276 275 281 287 286 285 287 287 287 287 286 286 293 295 293 292 287 277 275 281 285 286 288 289 290 290 291 291 282 270 266 267 267 270 274 274 275 278 277 272 267 268 268 262 255 247 244 247
269 271 271 270 271 269 267 266 265 262 260 258 256 255 254 254 253 249 249 251 251 250 251 252 251 251 249 249 252 257 263 264 264 268 268 265 270 276 275 277 283 288 291 291 289 289 288 282 279 284 289 293 302 301 286 277 280 280 282 286 287 287 290 294 299 298 288 281 278 275 278 283 283 283 283 280 274 268 263 258 262 269 266 260 256
270 273 274 276 276 276 272 267 265 265 264 262 259 256 254 253 252 250 250 253 255 256 257 256 256 255 251 246 247 252 258 260 260 260 257 260 270 276 275 276 282 287 292 294 293 291 292 290 281 273 278 291 301 303 293 283 280 278 279 283 282 281 287 297 306 310 303 291 282 275 280 289 290 284 283 284 282 277 269 259 262 275 278 274 272
269 272 274 275 276 277 272 263 259 260 263 264 261 257 256 255 253 251 251 255 259 260 259 259 259 258 253 246 243 247 251 253 252 250 248 255 268 274 272 275 281 285 289 292 292 289 294 296 282 261 283 302 303 302 297 287 281 277 275 276 275 278 288 298 304 306 303 292 281 273 274 278 277 270 271 281 284 281 275 268 266 271 275 278 286
265 266 269 270 271 275 272 263 257 257 261 263 260 256 256 255 253 250 251 255 257 256 256 257 258 257 252 247 244 242 243 245 246 245 246 251 260 266 266 269 279 286 287 285 286 290 295 299 290 283 303 307 304 301 299 294 287 279 272 269 270 276 286 293 296 297 294 285 275 270 269 271 270 266 263 268 273 274 277 279 279 278 278 282 296
260 260 261 264 266 270 268 261 256 259 265 265 260 257 256 254 250 249 252 255 253 251 253 255 257 257 254 249 245 242 241 245 246 243 244 248 252 256 258 263 272 282 285 281 281 286 293 295 291 290 298 305 306 303 300 298 291 282 277 277 278 280 283 285 286 287 284 278 270 264 264 266 267 265 261 259 263 267 278 292 299 302 299 293 297
255 256 255 255 257 258 259 255 252 259 268 268 262 258 255 251 247 246 247 249 248 249 252 254 255 258 257 252 249 244 239 241 243 240 241 244 247 251 257 263 266 270 275 277 277 280 286 288 283 285 295 302 303 300 299 297 290 285 284 286 286 284 280 278 277 275 272 270 268 267 268 268 267 268 263 255 259 267 272 284 288 298 320 320 311
248 249 245 245 248 250 253 253 252 256 262 263 259 256 253 249 248 246 243 245 250 253 255 256 256 258 258 255 253 249 245 243 242 239 238 239 242 250 259 265 266 264 263 268 275 277 276 276 278 285 292 294 293 297 302 303 299 290 282 281 283 280 274 272 269 262 258 259 262 270 279 276 266 267 267 259 262 266 264 272 287 303 337 346 2
238 239 238 240 245 248 250 253 255 256 255 254 255 257 255 251 250 250 245 244 251 257 258 259 259 259 259 258 257 256 255 254 248 240 237 240 245 251 259 263 263 260 258 260 262 262 261 266 274 282 287 288 291 298 302 306 310 303 288 283 283 276 264 257 247 241 246 251 257 272 288 282 260 263 263 250 249 252 267 309 3 40 50 49 91
231 235 238 241 243 245 248 253 256 254 249 248 254 260 260 256 255 255 252 251 255 258 260 263 262 259 257 258 259 260 258 257 253 243 238 243 248 251 257 263 261 257 258 260 257 255 258 263 269 277 282 283 286 289 289 295 307 311 302 293 282 260 241 239 236 237 245 249 251 257 256 244 270 266 243 223 233 206 154 81 27 73 102 111 103
229 233 235 239 242 243 245 249 254 254 249 248 254 258 258 257 256 256 255 256 258 259 260 262 262 262 262 260 260 262 258 254 254 249 241 243 247 245 246 253 254 252 255 259 258 258 259 260 263 272 278 279 280 277 270 270 292 309 303 289 272 250 237 240 242 250 260 252 242 242 218 162 221 264 238 222 241 216 167 165 210 196 158 126 101
231 232 233 239 243 244 242 242 247 252 252 251 254 257 257 256 256 256 258 260 262 263 264 264 263 263 266 265 262 261 258 254 255 254 247 245 250 249 245 244 247 251 255 255 257 260 259 255 257 265 269 272 278 274 260 252 274 295 290 283 271 248 229 229 235 244 257 246 229 232 224 181 180 222 233 228 250 237 192 199 221 195 168 152 120
232 231 232 238 241 240 240 240 243 249 252 254 254 255 256 256 258 262 262 260 260 262 262 264 265 265 267 268 266 264 264 263 256 247 240 240 248 257 261 261 263 266 263 257 260 266 263 257 261 268 271 273 278 279 272 271 282 287 278 269 265 253 238 238 241 236 237 238 224 215 219 201 187 203 231 233 249 251 225 225 226 202 193 198 160
228 227 229 235 238 237 236 240 244 247 250 253 253 253 254 257 260 265 266 261 259 261 259 257 259 260 261 265 266 263 264 265 258 251 254 259 265 270 273 273 274 270 262 258 260 264 262 260 264 272 276 275 274 277 280 278 276 282 276 257 250 253 251 251 253 243 230 241 236 218 208 202 188 192 218 245 259 244 228 224 221 208 206 202 157
229 227 228 231 232 231 234 239 243 246 248 248 249 253 258 259 259 262 265 264 262 260 258 259 259 255 253 257 260 259 260 262 263 266 269 272 275 277 277 277 275 267 258 254 256 258 257 257 262 268 270 269 267 269 276 274 266 272 280 268 256 253 250 246 246 241 230 229 227 213 205 203 192 186 189 220 258 246 232 221 212 206 204 187 143
234 231 230 229 224 222 230 238 241 243 245 244 244 251 263 268 266 261 258 259 261 261 259 259 260 256 253 256 259 261 264 266 269 272 273 273 274 275 275 274 271 261 252 246 245 249 250 251 255 259 260 262 265 266 268 270 264 258 266 274 268 258 251 246 237 232 230 222 208 199 197 196 190 185 183 203 242 246 238 223 210 204 201 176 141
238 234 232 227 219 216 223 232 236 237 239 239 240 245 256 266 270 266 252 244 249 256 259 260 261 260 257 258 261 265 268 270 271 272 273 274 274 273 271 268 262 254 245 237 236 243 245 245 249 251 249 255 266 267 264 265 265 258 256 267 272 264 255 244 227 222 224 215 198 190 190 190 191 195 195 201 222 240 249 235 215 200 185 158 137
239 236 232 226 222 222 225 230 233 234 234 235 238 242 250 260 267 269 264 253 248 248 249 249 250 255 260 263 266 269 270 270 269 268 268 268 267 266 265 262 257 250 241 234 236 242 245 245 250 252 249 253 262 264 260 259 263 262 259 264 271 265 246 226 215 213 208 201 194 188 187 189 195 199 196 194 206 228 249 246 225 201 173 149 138
242 238 233 228 227 230 233 234 235 236 235 234 234 238 247 254 255 256 260 264 266 264 258 244 234 239 258 269 270 270 270 271 270 267 264 263 262 261 256 250 246 240 233 231 234 240 244 246 249 249 249 253 256 252 247 247 251 254 255 255 253 244 228 216 207 199 194 195 194 188 183 187 196 197 190 188 197 209 225 231 226 205 170 149 144
248 240 233 227 226 230 233 234 234 236 237 235 234 237 243 246 246 247 251 256 260 266 270 263 244 239 258 270 268 264 266 268 268 267 263 260 258 254 245 241 242 240 234 231 232 236 240 244 248 248 248 254 257 250 242 240 242 244 248 250 239 218 212 213 207 198 194 196 195 188 182 185 196 203 200 191 191 202 214 216 209 192 172 160 160
251 243 233 224 220 222 225 226 229 232 234 235 237 240 240 236 237 244 249 251 252 255 262 268 262 254 256 256 249 251 267 274 273 272 269 263 259 251 244 244 253 256 255 251 245 241 238 240 245 245 239 241 249 248 242 238 237 237 241 248 244 224 209 206 205 202 198 196 196 193 190 190 200 210 208 195 190 199 205 199 189 182 175 168 165
252 243 233 224 218 213 210 218 231 234 232 234 239 241 238 233 235 241 246 249 250 251 255 261 261 261 263 251 227 233 268 277 272 267 260 255 254 251 244 244 251 256 259 262 258 248 243 246 249 245 235 236 244 245 240 235 233 230 231 238 241 228 207 202 205 205 203 202 200 196 194 195 201 205 201 195 195 197 193 189 186 179 172 168 167
256 245 235 228 220 204 193 208 232 235 230 230 235 236 235 233 235 239 244 247 246 245 250 254 255 260 269 263 235 237 268 273 270 268 259 246 245 248 245 246 252 255 258 261 257 245 242 249 249 236 228 239 246 242 235 234 232 227 226 233 237 225 210 209 214 214 211 210 205 194 191 196 199 196 193 195 198 198 193 191 190 184 180 181 180
263 252 238 228 219 205 197 209 232 239 233 229 229 230 233 236 235 238 243 246 245 245 247 251 255 260 264 259 252 263 279 283 284 287 285 277 271 268 264 260 262 264 264 260 253 243 243 249 245 227 226 240 244 237 231 232 231 225 224 229 234 232 224 222 224 222 215 208 199 190 191 198 200 194 191 194 198 200 195 190 188 186 187 188 187
267 257 239 226 219 209 201 210 228 240 242 239 235 234 236 237 235 237 242 245 246 248 248 251 258 263 258 248 248 258 269 279 285 285 286 287 285 281 278 274 271 272 271 262 250 245 244 243 238 231 230 234 236 235 232 230 229 227 223 222 227 232 231 227 227 224 215 204 195 191 194 201 203 196 190 191 196 198 193 187 184 185 186 187 186
268 259 242 222 211 202 196 203 223 238 244 245 244 243 243 241 237 238 243 246 246 249 251 252 259 264 256 243 247 253 257 267 278 281 280 283 283 282 282 281 276 275 273 264 253 251 250 242 238 239 235 227 230 240 240 233 228 228 224 221 223 227 227 227 226 221 210 202 196 191 192 201 207 202 192 189 192 192 189 186 184 183 184 184 181
270 263 246 217 203 201 201 206 218 228 233 239 246 248 245 241 238 239 242 244 243 245 249 251 258 264 257 241 239 249 255 261 269 272 274 279 283 283 284 283 280 277 273 265 257 257 255 246 238 241 240 228 225 234 238 235 232 229 225 221 223 225 225 226 225 219 211 205 197 188 186 194 202 200 192 190 193 193 190 186 183 182 182 182 180
268 258 246 224 206 204 207 209 215 221 224 233 248 252 248 243 242 242 244 244 242 240 244 248 254 261 259 242 229 239 253 261 267 271 276 279 282 283 284 284 283 278 271 265 262 262 257 247 238 238 236 229 225 230 234 234 235 232 226 222 222 224 227 227 224 219 214 205 194 189 189 193 196 195 193 192 193 193 192 188 184 182 180 179 180
265 253 244 233 218 211 210 211 215 220 222 226 237 246 248 247 245 243 244 246 245 238 237 243 250 255 258 254 248 251 260 266 270 273 277 279 280 283 285 285 284 280 274 269 267 264 257 248 240 237 233 229 230 235 239 241 241 236 229 225 223 224 228 229 226 221 214 204 195 192 193 194 196 196 195 194 193 193 193 190 185 183 182 181 181
269 255 247 242 232 221 214 212 215 222 228 230 235 242 248 251 253 251 250 251 250 245 240 243 246 248 252 256 259 261 265 269 272 274 276 278 280 283 284 284 283 283 280 276 271 264 257 250 243 239 237 234 233 233 239 247 249 241 232 228 227 226 227 228 226 220 212 203 198 196 192 192 194 196 195 194 194 194 193 191 187 184 185 185 183
274 262 253 248 238 224 214 210 214 229 242 247 246 246 250 259 270 275 269 261 254 252 250 246 241 240 245 250 254 258 261 264 269 273 275 276 276 277 282 288 289 288 286 282 275 267 260 253 248 243 239 236 233 231 234 241 244 239 232 227 227 227 226 223 220 218 211 204 202 200 194 192 194 194 192 194 196 194 191 190 187 186 188 188 184
278 270 260 250 237 224 214 211 217 230 243 249 247 243 244 251 259 265 268 263 254 249 250 248 242 239 243 244 245 252 258 262 266 273 275 275 277 281 287 291 292 292 291 288 280 271 265 260 255 248 241 237 236 236 235 234 238 241 239 232 228 228 228 224 220 219 216 209 204 201 197 196 197 194 191 194 196 191 187 188 187 186 189 191 186
283 275 265 252 238 225 217 215 221 228 235 238 239 240 244 248 249 250 254 257 253 247 247 249 247 242 239 238 237 242 253 260 266 273 278 278 281 286 290 290 292 293 293 290 285 280 274 267 261 255 249 245 244 244 242 239 239 244 245 240 234 230 230 227 221 219 218 211 204 200 198 197 196 195 194 196 196 190 187 191 190 187 189 192 189
284 275 267 257 244 233 227 228 231 231 229 232 241 245 244 241 241 239 238 240 241 238 243 255 259 249 228 226 231 238 251 261 265 272 279 283 286 289 289 289 291 292 290 288 287 285 281 274 266 261 257 256 254 251 250 248 245 244 247 248 242 234 232 230 225 221 219 212 204 202 201 195 191 192 195 197 197 192 188 189 188 186 187 190 188
288 275 267 259 250 247 250 250 246 241 234 235 241 244 240 236 237 235 226 219 219 220 232 260 276 268 242 234 238 244 255 266 267 271 278 283 286 290 289 288 290 292 290 287 285 283 280 277 272 266 262 261 258 253 250 248 243 239 242 247 243 234 230 230 227 224 223 218 209 206 204 196 191 190 193 196 198 196 192 191 192 192 191 190 186